Regional Weather Roundup
Issued by NWS

Home | Current Version | Previous Version | Graphics & Text | Print | Product List | Glossary On
Versions: 1 2 3 4 5 6 7 8 9 10 11 12 13 14 15 16 17 18 19 20 21 22 23 24 25
000
ASUS45 KTFX 230410
RWRMT
MONTANA REGIONAL WEATHER ROUNDUP
NATIONAL WEATHER SERVICE GREAT FALLS MT
1000 PM MDT TUE AUG 22 2017

NOTE: "FAIR" INDICATES FEW OR NO CLOUDS BELOW 12000 FEET WITH NO
SIGNIFICANT WEATHER AND/OR OBSTRUCTIONS TO VISIBILITY.

MTZ001>007-043-230500-
WEST OF THE DIVIDE

CITY           SKY/WX    TMP DP  RH WIND       PRES   REMARKS
KALISPELL      CLEAR     63  44  50 CALM      29.99R
MISSOULA       CLEAR     71  39  31 CALM      30.03R
BUTTE          CLEAR     68  34  28 CALM      30.20R
MULLAN PASS    CLEAR     68  36  30 SW7       30.22R
ANACONDA         N/A     72  30  21 W9        30.16R
DEER LODGE       N/A     66  36  32 W6        30.15R
EUREKA           N/A     73  39  29 MISG      29.96R
HAMILTON         N/A     66  41  39 CALM      30.08R
LIBBY            N/A     72  39  30 SE5       29.96R
RONAN            N/A     62  50  65 SE2       30.06R
$$

MTZ008-052>055-230500-
SOUTHWEST MONTANA

CITY           SKY/WX    TMP DP  RH WIND       PRES   REMARKS
BOZEMAN        CLEAR     70  39  32 S10       30.09R
DILLON         CLEAR     66  34  30 CALM      30.14R
W YELLOWSTONE  CLEAR     64  30  27 CALM      30.29R
ENNIS          CLEAR     68  28  22 SE5       30.20R
$$

MTZ009-010-012-014-046-048-049-054-230500-
EAST SLOPES AND CENTRAL MONTANA

CITY           SKY/WX    TMP DP  RH WIND       PRES   REMARKS
CUT BANK       CLEAR     70  37  29 E7        30.05S
GREAT FALLS    CLEAR     70  31  23 E7        30.04R
MALMSTROM AFB  CLEAR     67  31  25 SE6       30.04R
HELENA         PTCLDY    76  35  22 S7        30.07R
AUGUSTA          N/A     67  32  27 CALM      30.10R
BOWMANS CRNR     N/A     72  29  20 NE5       30.07R
CHOTEAU          N/A     70  36  28 CALM      30.09R
FAIRFIELD        N/A     73  32  22 E7        30.06R
POWER            N/A     70  33  25 E7        30.05R
RAYNESFORD       N/A     69  35  29 E10       30.08R
ULM              N/A     68  32  26 SE9       30.03S
$$

MTZ011-013-016-021-045-047-050-051-230500-
NORTH CENTRAL MONTANA

CITY           SKY/WX    TMP DP  RH WIND       PRES   REMARKS
HAVRE          CLEAR     72  42  34 E8        30.00S
LEWISTOWN      CLEAR     69  35  28 E9        30.10R
N BAR RANCH      N/A     64  32  29 CALM      30.16R
CHINOOK          N/A     68  46  45 CALM      30.01R
DENTON           N/A     72  34  25 SE5       30.03R
GEYSER           N/A     71  35  26 S13       30.08S
GRASS RANGE      N/A     65  33  30 W8        30.07R
JUDITH GAP       N/A     65  33  30 S5        30.13R
WINIFRED       MOCLDY    68  34  29 SE20      30.06S
$$

MTZ017>020-022>027-061-062-230500-
NORTHEAST MONTANA

CITY           SKY/WX    TMP DP  RH WIND       PRES   REMARKS
GLASGOW        CLEAR     70  35  27 E14       30.03R
JORDAN           N/A     68  34  28 E5        30.04R
SIDNEY         CLEAR     63  40  42 CALM      30.08S
WOLF POINT     CLEAR     63  37  38 NE6       30.05S
MALTA          CLEAR     66  43  42 E7        30.01S
PLENTYWOOD       N/A     66  39  37 CALM      30.06F
$$

MTZ028>42-056>058-230500-
SOUTHCENTRAL AND SOUTHEAST MONTANA

CITY           SKY/WX    TMP DP  RH WIND       PRES   REMARKS
BAKER          CLEAR     67  38  34 E13       30.12R
BILLINGS       CLEAR     76  33  21 E7        30.06S
LIVINGSTON     CLEAR     71  37  28 SE10      30.10R
MILES CITY     CLEAR     74  36  25 E12       30.05R
BIG TIMBER     CLEAR     70  36  28 VRB7      30.13R
HARLOWTON        N/A     71  33  24 MISG      30.11R
LAUREL           N/A     73  36  26 N2        30.05F
$$

REGIONAL REPORTS...DAKOTAS

CITY           SKY/WX    TMP DP  RH WIND       PRES   REMARKS
WILLISTON      PTCLDY    68  45  43 S5        30.08S
MINOT          CLEAR     61  44  53 SE3       30.09F
DICKINSON      CLEAR     55  43  63 SE7       30.12R
BEACH            N/A     55  39  54 SE7       30.15S
CROSBY           N/A     61  41  48 S9        30.07F
TIOGA            N/A     59  43  55 S7        30.12S
WATFORD CITY     N/A     63  41  45 SE9       30.09S
BISMARCK       CLEAR     59  49  69 CALM      30.12S
GRAND FORKS    PTCLDY    54  48  80 NW5       30.08R
FARGO          PTCLDY    57  47  69 W3        30.08R
BUFFALO SD       N/A     67  46  47 E9        30.06R
RAPID CITY     CLEAR     66  45  46 SE3       30.10S
$$

REGIONAL REPORTS...WYOMING/IDAHO/WASHINGTON

CITY           SKY/WX    TMP DP  RH WIND       PRES   REMARKS
GILLETTE       CLEAR     57  33  40 S7        30.13S
SHERIDAN       CLEAR     59  44  57 SW3       30.11R
BUFFALO WY     CLEAR     67  34  29 W9        30.19R
CODY           CLEAR     68  39  34 CALM      30.18R
YELLOWSTONE LA   N/A     47  32  56 CALM      30.40R
IDAHO FALLS    CLEAR     61  48  62 CALM      30.14R
SALMON         CLEAR     67  37  33 SE6       30.10R HAZE
BOISE          CLEAR     80  49  33 CALM      29.98R
SPOKANE        CLOUDY    78  40  25 SW5       29.96R
$$

REGIONAL REPORTS...ALBERTA

CITY           SKY/WX    TMP DP  RH WIND       PRES   REMARKS
EDMONTON       PTCLDY    61  54  77 SE5       29.98S
CALGARY        PTCLDY    70  45  40 E10       30.02R
LETHBRIDGE     PTCLDY    63  46  55 E9        29.99R
MEDICINE HAT   CLEAR     68  50  52 S2        29.97R
$$

REGIONAL REPORTS...SASKATCHEWAN

CITY           SKY/WX    TMP DP  RH WIND       PRES   REMARKS
SWIFT CURRENT  CLEAR     64  43  45 E8        30.03R
REGINA         CLOUDY    66  41  39 E10       30.03R
SASKATOON      PTCLDY    63  52  67 NE2       30.00S
$$




USA.gov is the U.S. government's official web portal to all federal, state and local government web resources and services.